�N����,����,�g�[���i�䏊�j���x,�g�[�����x,��g�[���i��Q���j���x,����
 2002/12/01, 0:00,21.3,53,17.2,11.8
 2002/12/01, 0:15,21,53,17,11.9
 2002/12/01, 0:30,20.8,53,16.9,11.9
 2002/12/01, 0:45,20.5,55,16.9,11.4
 2002/12/01, 1:00,20.4,55,16.7,12
 2002/12/01, 1:15,20,55,16.5,12.3
 2002/12/01, 1:30,19.8,55,16.5,12.3
 2002/12/01, 1:45,19.7,54,16.1,12.3
 2002/12/01, 2:00,19.4,55,15.8,12.4
 2002/12/01, 2:15,19.3,55,15.8,12.4
 2002/12/01, 2:30,19.1,54,15.6,12.5
 2002/12/01, 2:45,19,54,15.5,12.5
 2002/12/01, 3:00,18.9,54,15.4,12.6
 2002/12/01, 3:15,18.7,54,15.4,12.6
 2002/12/01, 3:30,18.5,55,15.2,12.6
 2002/12/01, 3:45,18.5,54,15.2,12.7
 2002/12/01, 4:00,18.3,54,15.2,12.7
 2002/12/01, 4:15,18.3,55,15.1,12.8
 2002/12/01, 4:30,18.1,55,15.1,12.8
 2002/12/01, 4:45,18,55,15.1,12.9
 2002/12/01, 5:00,17.9,55,15.1,12.9
 2002/12/01, 5:15,17.8,55,15.1,12.9
 2002/12/01, 5:30,17.8,55,15,13
 2002/12/01, 5:45,17.6,56,15,13
 2002/12/01, 6:00,17.5,56,14.9,13
 2002/12/01, 6:15,17.4,56,15,13.1
 2002/12/01, 6:30,17.4,56,14.9,13.1
 2002/12/01, 6:45,17.2,57,14.8,13.1
 2002/12/01, 7:00,17.2,57,14.8,13.2
 2002/12/01, 7:15,17.2,57,14.8,13.2
 2002/12/01, 7:30,17,57,14.7,13.2
 2002/12/01, 7:45,17.2,57,14.8,11.7
 2002/12/01, 8:00,16.9,60,14.6,11.8
 2002/12/01, 8:15,17,62,14.5,11.8
 2002/12/01, 8:30,16.9,62,14.5,11.8
 2002/12/01, 8:45,17.9,66,14.4,11.8
 2002/12/01, 9:00,20.9,49,14.3,11.8
 2002/12/01, 9:15,21.8,47,14.3,11.8
 2002/12/01, 9:30,22.4,47,15.7,11.6
 2002/12/01, 9:45,22.8,47,16.1,11.7
 2002/12/01,10:00,23.1,45,16.7,11.8
 2002/12/01,10:15,22.9,46,16.8,11.9
 2002/12/01,10:30,23.2,44,17,12.2
 2002/12/01,10:45,23.1,46,17,12.2
 2002/12/01,11:00,21.1,50,17.1,11.8
 2002/12/01,11:15,20.8,56,17,11.8
 2002/12/01,11:30,20.5,55,17,11.9
 2002/12/01,11:45,20.2,54,17,11.9
 2002/12/01,12:00,20.2,54,17,12
 2002/12/01,12:15,20.3,52,17.3,12
 2002/12/01,12:30,20.7,69,17.4,12.1
 2002/12/01,12:45,20.6,54,17.5,11.6
 2002/12/01,13:00,20.5,54,17.8,11.6
 2002/12/01,13:15,20.4,50,18,11.6
 2002/12/01,13:30,20.4,51,18.1,11.5
 2002/12/01,13:45,20.3,49,18.4,11.6
 2002/12/01,14:00,20.4,49,18.5,11.4
 2002/12/01,14:15,20.1,48,18.4,11.5
 2002/12/01,14:30,19.8,48,18.3,11.6
 2002/12/01,14:45,19.6,48,18.2,11.5
 2002/12/01,15:00,19.3,49,18.1,11.5
 2002/12/01,15:15,19.8,48,18.5,11.6
 2002/12/01,15:30,20,48,18.8,11.6
 2002/12/01,15:45,20.3,46,19,11.5
 2002/12/01,16:00,20.1,45,19.1,11.6
 2002/12/01,16:15,20,49,19.2,11.7
 2002/12/01,16:30,20.4,49,19.1,11.7
 2002/12/01,16:45,20.1,56,18.9,11.8
 2002/12/01,17:00,20.1,58,18.8,12.2
 2002/12/01,17:15,20,55,18.7,12.3
 2002/12/01,17:30,20.2,54,18.6,12.3
 2002/12/01,17:45,20.4,54,18.5,12.4
 2002/12/01,18:00,21.3,54,18.5,12.4
 2002/12/01,18:15,23.4,45,18.9,12
 2002/12/01,18:30,24,41,19.1,12.1
 2002/12/01,18:45,24.3,40,19.2,12.1
 2002/12/01,19:00,24.5,40,19.3,12.4
 2002/12/01,19:15,24.9,42,19.6,12.5
 2002/12/01,19:30,25.3,41,19.8,12.5
 2002/12/01,19:45,25.5,43,20.3,12.6
 2002/12/01,20:00,25.4,43,20.4,12.6
 2002/12/01,20:15,25.6,42,20.3,12.7
 2002/12/01,20:30,25.8,43,20.7,12.8
 2002/12/01,20:45,25.7,42,20.7,12.8
 2002/12/01,21:00,25.8,42,20.8,12.4
 2002/12/01,21:15,25.9,41,20.9,12.5
 2002/12/01,21:30,26,41,21,12.5
 2002/12/01,21:45,26,41,21.1,12.6
 2002/12/01,22:00,26.1,40,21.3,12.6
 2002/12/01,22:15,26.1,40,21,12
 2002/12/01,22:30,26.2,40,21.1,12.1
 2002/12/01,22:45,26.1,40,21.3,11.8
 2002/12/01,23:00,26.2,39,21.3,12
 2002/12/01,23:15,26.2,39,21.4,12
 2002/12/01,23:30,23.5,46,20.7,11.8
 2002/12/01,23:45,22.5,50,20.1,11.9
 2002/12/02, 0:00,22.1,50,19.9,12
 2002/12/02, 0:15,21.8,51,19.6,12.1
 2002/12/02, 0:30,21.5,52,19.4,11.9
 2002/12/02, 0:45,21.3,52,19.3,11.9
 2002/12/02, 1:00,21.1,53,19,12
 2002/12/02, 1:15,20.9,53,18.9,12.1
 2002/12/02, 1:30,20.5,53,18.7,12.2
 2002/12/02, 1:45,20.4,53,18.5,12.2
 2002/12/02, 2:00,20.3,54,18.3,12.3
 2002/12/02, 2:15,20.2,53,18.2,12.4
 2002/12/02, 2:30,19.9,54,18.1,12.5
 2002/12/02, 2:45,19.8,53,18,12.5
 2002/12/02, 3:00,19.7,53,17.7,12.6
 2002/12/02, 3:15,19.5,53,17.7,12.7
 2002/12/02, 3:30,19.4,54,17.6,12.7
 2002/12/02, 3:45,19.3,53,17.5,12.8
 2002/12/02, 4:00,19.1,53,17.4,12.9
 2002/12/02, 4:15,19.1,53,17.3,12.9
 2002/12/02, 4:30,19,53,17.1,13
 2002/12/02, 4:45,18.8,53,17,13.1
 2002/12/02, 5:00,18.7,53,16.9,13.1
 2002/12/02, 5:15,18.7,53,16.8,13.2
 2002/12/02, 5:30,18.6,52,16.7,13.3
 2002/12/02, 5:45,18.3,53,16.6,13.3
 2002/12/02, 6:00,18.3,53,16.5,13.4
 2002/12/02, 6:15,18.1,53,16.4,13.4
 2002/12/02, 6:30,18,53,16.3,13.5
 2002/12/02, 6:45,17.9,53,16.2,13.5
 2002/12/02, 7:00,18,54,16.1,12.2
 2002/12/02, 7:15,18.6,55,16,12.1
 2002/12/02, 7:30,18.5,54,15.9,12.2
 2002/12/02, 7:45,18.4,54,15.8,12.2
 2002/12/02, 8:00,18.4,53,15.7,11.8
 2002/12/02, 8:15,18.4,56,15.5,11.9
 2002/12/02, 8:30,18.2,54,15.5,11.9
 2002/12/02, 8:45,18.2,52,15.4,11.6
 2002/12/02, 9:00,18.3,52,15.5,11.7
 2002/12/02, 9:15,18.2,52,15.5,11.7
 2002/12/02, 9:30,18.1,53,15.5,11.8
 2002/12/02, 9:45,18.2,53,15.5,11.8
 2002/12/02,10:00,18.6,57,15.7,11.9
 2002/12/02,10:15,18.5,56,15.8,12.1
 2002/12/02,10:30,18.4,55,15.9,12.1
 2002/12/02,10:45,18.6,54,16.1,12.1
 2002/12/02,11:00,18.6,53,16.3,12.2
 2002/12/02,11:15,18.5,52,16.2,12.2
 2002/12/02,11:30,18.5,52,16.5,12.3
 2002/12/02,11:45,18.8,52,16.7,12.3
 2002/12/02,12:00,19,50,17,12.4
 2002/12/02,12:15,19.4,49,17.4,12.4
 2002/12/02,12:30,19.6,49,17.7,12.5
 2002/12/02,12:45,19.9,49,18.2,12.5
 2002/12/02,13:00,20.5,46,18.7,12.6
 2002/12/02,13:15,20.7,46,19.1,12.6
 2002/12/02,13:30,20.5,47,19,12.7
 2002/12/02,13:45,20,49,19,12.8
 2002/12/02,14:00,19.8,49,18.9,12.8
 2002/12/02,14:15,19.9,49,18.9,12.9
 2002/12/02,14:30,20.2,48,19.4,12.9
 2002/12/02,14:45,20.5,48,19.6,13
 2002/12/02,15:00,20.6,47,19.6,13.1
 2002/12/02,15:15,20.1,49,19.3,11.7
 2002/12/02,15:30,19.8,49,19.2,11.7
 2002/12/02,15:45,20.1,44,19,11.8
 2002/12/02,16:00,19.9,43,18.9,11.8
 2002/12/02,16:15,19.8,42,18.7,11.9
 2002/12/02,16:30,19.9,42,18.5,11.9
 2002/12/02,16:45,20,57,18.3,12
 2002/12/02,17:00,20.2,50,18.3,12.1
 2002/12/02,17:15,20.1,46,18.2,12.1
 2002/12/02,17:30,20.5,49,18.1,12
 2002/12/02,17:45,20.6,53,18,12.1
 2002/12/02,18:00,23.1,43,18.4,12.2
 2002/12/02,18:15,23.6,41,18.7,12.3
 2002/12/02,18:30,23.4,42,18.9,12.3
 2002/12/02,18:45,24.2,41,19.2,12.4
 2002/12/02,19:00,24.5,39,19.3,12.4
 2002/12/02,19:15,24.9,38,19.3,12.5
 2002/12/02,19:30,25.1,36,19.2,11.9
 2002/12/02,19:45,25.2,35,19.3,12.1
 2002/12/02,20:00,24.5,37,19.3,12.5
 2002/12/02,20:15,22.1,43,18.7,12.7
 2002/12/02,20:30,21.5,44,18.4,12.7
 2002/12/02,20:45,21.1,45,18.2,12.8
 2002/12/02,21:00,21.4,72,18,12.1
 2002/12/02,21:15,21.1,48,17.7,12.1
 2002/12/02,21:30,21.2,49,17.7,12
 2002/12/02,21:45,21.3,49,17.6,12.1
 2002/12/02,22:00,22.1,48,17.6,12.2
 2002/12/02,22:15,23.6,45,18.2,12.2
 2002/12/02,22:30,24.1,42,18.5,12.3
 2002/12/02,22:45,24.2,41,18.6,12.3
 2002/12/02,23:00,22.8,44,18.5,12.3
 2002/12/02,23:15,23.6,43,18.5,12.4
 2002/12/02,23:30,24,42,18.6,12.5
 2002/12/02,23:45,24.3,41,18.9,12.5
 2002/12/03, 0:00,21.7,46,18.2,12.6
 2002/12/03, 0:15,21,47,17.9,12
 2002/12/03, 0:30,20.6,47,17.6,12
 2002/12/03, 0:45,20.2,47,17.4,12.1
 2002/12/03, 1:00,20,46,17.2,12.2
 2002/12/03, 1:15,19.7,46,17,12.2
 2002/12/03, 1:30,19.5,46,16.8,12.3
 2002/12/03, 1:45,19.3,47,16.6,12.3
 2002/12/03, 2:00,19.1,47,16.5,12.4
 2002/12/03, 2:15,18.9,47,16.4,12.4
 2002/12/03, 2:30,18.9,47,16.2,12.5
 2002/12/03, 2:45,18.7,47,16.1,12.6
 2002/12/03, 3:00,18.5,48,16,12.6
 2002/12/03, 3:15,18.4,48,15.8,12.7
 2002/12/03, 3:30,18.3,48,15.7,12.7
 2002/12/03, 3:45,18.2,49,15.6,12.8
 2002/12/03, 4:00,18,49,15.5,12.8
 2002/12/03, 4:15,18,48,15.3,12.9
 2002/12/03, 4:30,17.8,49,15.2,12.9
 2002/12/03, 4:45,17.6,49,15.1,13
 2002/12/03, 5:00,17.5,49,15,13
 2002/12/03, 5:15,17.5,49,14.9,13
 2002/12/03, 5:30,17.4,49,14.8,13.1
 2002/12/03, 5:45,17.2,49,14.7,13.1
 2002/12/03, 6:00,17.1,49,14.5,13.2
 2002/12/03, 6:15,17,49,14.5,13.2
 2002/12/03, 6:30,16.9,49,14.3,13.2
 2002/12/03, 6:45,16.8,49,14.2,13.3
 2002/12/03, 7:00,16.7,49,14.2,13.3
 2002/12/03, 7:15,17,50,14.2,12.3
 2002/12/03, 7:30,18,49,14.1,12.5
 2002/12/03, 7:45,17.7,49,14,12.6
 2002/12/03, 8:00,17.5,50,13.9,12
 2002/12/03, 8:15,17.5,49,13.8,12.1
 2002/12/03, 8:30,17.2,49,13.8,12.1
 2002/12/03, 8:45,17,49,13.8,12.1
 2002/12/03, 9:00,17,49,13.8,12.1
 2002/12/03, 9:15,16.8,50,13.8,12.2
 2002/12/03, 9:30,16.9,50,14,12.2
 2002/12/03, 9:45,16.8,50,14.1,12.2
 2002/12/03,10:00,16.9,50,14.3,12.3
 2002/12/03,10:15,17,50,14.5,12.3
 2002/12/03,10:30,17.1,50,14.8,12.3
 2002/12/03,10:45,17.3,50,15.3,12.4
 2002/12/03,11:00,17.5,49,15.7,12.4
 2002/12/03,11:15,17.6,49,16.1,12.4
 2002/12/03,11:30,18.1,48,16.6,12.5
 2002/12/03,11:45,18.3,48,17.2,12.5
 2002/12/03,12:00,18.5,48,17.7,12.6
 2002/12/03,12:15,18.9,48,18.1,12.6
 2002/12/03,12:30,18.9,48,18.3,12.6
 2002/12/03,12:45,19.1,47,18.5,12.7
 2002/12/03,13:00,19,48,18.5,12.7
 2002/12/03,13:15,19.1,48,18.7,12.8
 2002/12/03,13:30,19.3,48,18.9,12.8
 2002/12/03,13:45,19.7,47,19.4,12.9
 2002/12/03,14:00,19.8,47,19.7,12.9
 2002/12/03,14:15,20.1,46,20.1,13
 2002/12/03,14:30,20.1,47,20,13
 2002/12/03,14:45,19.6,48,19.7,13.1
 2002/12/03,15:00,19.4,49,19.3,13.1
 2002/12/03,15:15,19.3,50,19.1,13.2
 2002/12/03,15:30,19.1,50,18.9,13.2
 2002/12/03,15:45,19.1,49,18.7,13.3
 2002/12/03,16:00,19.1,50,18.6,11.9
 2002/12/03,16:15,18.8,50,18.4,11.4
 2002/12/03,16:30,18.9,50,18.3,11.5
 2002/12/03,16:45,18.9,50,18.2,11.5
 2002/12/03,17:00,18.9,50,18.1,11.6
 2002/12/03,17:15,18.8,51,18.1,11.7
 2002/12/03,17:30,19.8,57,18,11.8
 2002/12/03,17:45,20,51,17.9,11.5
 2002/12/03,18:00,20,51,17.9,11.7
 2002/12/03,18:15,19.9,54,17.8,11.4
 2002/12/03,18:30,19.7,53,17.8,11.5
 2002/12/03,18:45,19.7,54,17.7,11.6
 2002/12/03,19:00,19.9,53,17.6,11.6
 2002/12/03,19:15,20,55,17.5,11.7
 2002/12/03,19:30,19.8,55,17.5,11.8
 2002/12/03,19:45,19.8,53,17.4,11.7
 2002/12/03,20:00,19.9,53,17.3,11.8
 2002/12/03,20:15,19.9,52,17.3,12.2
 2002/12/03,20:30,20.2,52,17.2,12.2
 2002/12/03,20:45,19.8,53,17.1,12.3
 2002/12/03,21:00,19.7,53,17.1,12.2
 2002/12/03,21:15,19.6,52,17,12.3
 2002/12/03,21:30,19.6,53,17,12.3
 2002/12/03,21:45,19.5,55,17,12.4
 2002/12/03,22:00,19.4,54,17,12.4
 2002/12/03,22:15,19.3,55,17,12.5
 2002/12/03,22:30,19.4,56,16.9,12.5
 2002/12/03,22:45,19.6,56,16.9,12.6
 2002/12/03,23:00,19.7,54,16.8,12.6
 2002/12/03,23:15,19.6,54,16.8,11.9
 2002/12/03,23:30,19.6,54,16.8,12
 2002/12/03,23:45,19.6,54,16.8,12
 2002/12/04, 0:00,19.6,54,16.7,12.1
 2002/12/04, 0:15,19.5,53,16.7,11.7
 2002/12/04, 0:30,19.4,53,16.7,11.7
 2002/12/04, 0:45,19.2,53,16.6,11.8
 2002/12/04, 1:00,19.1,53,16.6,11.8
 2002/12/04, 1:15,19,53,16.5,11.9
 2002/12/04, 1:30,19,53,16.5,12
 2002/12/04, 1:45,18.8,52,16.4,11.7
 2002/12/04, 2:00,18.7,53,16.4,11.7
 2002/12/04, 2:15,18.6,53,16.3,11.8
 2002/12/04, 2:30,18.5,53,16.3,11.8
 2002/12/04, 2:45,18.5,53,16.2,11.7
 2002/12/04, 3:00,18.6,52,16.1,11.7
 2002/12/04, 3:15,18.4,53,16.1,11.8
 2002/12/04, 3:30,18.4,53,16,11.8
 2002/12/04, 3:45,18.3,53,16,11.9
 2002/12/04, 4:00,18.2,54,15.9,11.9
 2002/12/04, 4:15,18.1,54,15.8,12
 2002/12/04, 4:30,18.1,54,15.7,12
 2002/12/04, 4:45,18.1,55,15.7,12.1
 2002/12/04, 5:00,18,55,15.7,12.1
 2002/12/04, 5:15,18,54,15.7,12.2
 2002/12/04, 5:30,17.9,55,15.6,12.2
 2002/12/04, 5:45,17.9,55,15.5,12.3
 2002/12/04, 6:00,17.8,55,15.4,12.3
 2002/12/04, 6:15,17.8,55,15.5,12.4
 2002/12/04, 6:30,17.8,55,15.7,12.4
 2002/12/04, 6:45,17.7,55,15.7,12.5
 2002/12/04, 7:00,17.8,57,15.7,12.5
 2002/12/04, 7:15,18.5,58,15.6,12.5
 2002/12/04, 7:30,18.7,58,15.5,12.2
 2002/12/04, 7:45,18.7,57,15.5,12.2
 2002/12/04, 8:00,18.6,56,15.5,12.4
 2002/12/04, 8:15,18.4,57,15.5,12.4
 2002/12/04, 8:30,18.7,57,15.5,12.5
 2002/12/04, 8:45,18.7,57,15.5,12.5
 2002/12/04, 9:00,18.6,58,15.5,12.5
 2002/12/04, 9:15,18.4,59,15.5,12.5
 2002/12/04, 9:30,18.1,59,15.7,12.6
 2002/12/04, 9:45,18.4,58,15.7,12.6
 2002/12/04,10:00,18.4,59,15.8,12.6
 2002/12/04,10:15,18.3,60,15.8,11.9
 2002/12/04,10:30,18.6,59,15.8,11.9
 2002/12/04,10:45,18.7,59,16,12
 2002/12/04,11:00,18.9,58,16.2,12
 2002/12/04,11:15,18.8,59,16.2,12.1
 2002/12/04,11:30,18.9,57,16.3,12.1
 2002/12/04,11:45,20.2,56,16.2,12.2
 2002/12/04,12:00,20.7,55,16.4,12.2
 2002/12/04,12:15,21,55,16.4,12.3
 2002/12/04,12:30,21.5,54,16.6,12.3
 2002/12/04,12:45,20.9,53,16.6,12.4
 2002/12/04,13:00,20.4,58,16.7,12.4
 2002/12/04,13:15,20.2,57,16.7,12.5
 2002/12/04,13:30,20,57,16.7,12.5
 2002/12/04,13:45,20,58,16.8,12.6
 2002/12/04,14:00,19.7,58,16.8,12.4
 2002/12/04,14:15,19.7,58,16.8,12.4
 2002/12/04,14:30,19.5,57,16.8,12.5
 2002/12/04,14:45,19.4,59,16.8,12.5
 2002/12/04,15:00,19.9,58,16.9,12.6
 2002/12/04,15:15,19.5,58,16.8,12.6
 2002/12/04,15:30,19.8,58,16.8,12.1
 2002/12/04,15:45,19.7,58,16.8,12.1
 2002/12/04,16:00,19.8,58,16.8,12.2
 2002/12/04,16:15,20.1,57,16.9,12.2
 2002/12/04,16:30,19.6,59,16.8,11.8
 2002/12/04,16:45,19.6,59,16.9,11.9
 2002/12/04,17:00,19.5,60,16.9,12
 2002/12/04,17:15,19.9,59,16.9,12.5
 2002/12/04,17:30,20.1,59,16.9,12.6
 2002/12/04,17:45,20,60,16.9,12.6
 2002/12/04,18:00,21.6,89,17,12.7
 2002/12/04,18:15,20.6,60,16.9,12.2
 2002/12/04,18:30,21.1,61,17,12.3
 2002/12/04,18:45,21.1,60,17.2,12.5
 2002/12/04,19:00,21.3,59,17.1,12.9
 2002/12/04,19:15,21.2,58,17.1,13.1
 2002/12/04,19:30,21.2,57,17.2,12.6
 2002/12/04,19:45,20.9,58,17.2,12.4
 2002/12/04,20:00,21.3,62,17.3,12.3
 2002/12/04,20:15,21.5,63,17.3,12.5
 2002/12/04,20:30,21.2,61,17.3,12.5
 2002/12/04,20:45,21.3,60,17.4,12.6
 2002/12/04,21:00,21.4,60,17.6,12.6
 2002/12/04,21:15,21.2,60,17.7,12.7
 2002/12/04,21:30,21.1,60,17.5,12.7
 2002/12/04,21:45,20.9,59,17.5,12.5
 2002/12/04,22:00,20.9,60,17.5,12.6
 2002/12/04,22:15,20.8,60,17.5,12.6
 2002/12/04,22:30,20.9,60,17.6,12.7
 2002/12/04,22:45,20.7,59,17.5,12.7
 2002/12/04,23:00,20.6,59,17.4,12.8
 2002/12/04,23:15,20.5,60,17.4,12.8
 2002/12/04,23:30,20.5,60,17.4,12.5
 2002/12/04,23:45,20.5,60,17.4,12.6
 2002/12/05, 0:00,20.7,59,17.4,12.6
 2002/12/05, 0:15,20.6,58,17.3,12.7
 2002/12/05, 0:30,20.4,59,17.5,12.7
 2002/12/05, 0:45,20.4,59,17.5,12.8
 2002/12/05, 1:00,20.4,59,17.5,12.8
 2002/12/05, 1:15,20.2,60,17.5,12.9
 2002/12/05, 1:30,20.1,60,17.4,12.9
 2002/12/05, 1:45,20,60,17.4,13
 2002/12/05, 2:00,20,60,17.3,13
 2002/12/05, 2:15,19.8,60,17.3,13.1
 2002/12/05, 2:30,19.8,61,17.3,13.2
 2002/12/05, 2:45,19.7,61,17.3,13.2
 2002/12/05, 3:00,19.7,60,17.3,13.3
 2002/12/05, 3:15,19.5,61,17.4,13.3
 2002/12/05, 3:30,19.4,61,17.3,13.4
 2002/12/05, 3:45,19.5,61,17.3,13.4
 2002/12/05, 4:00,19.3,61,17.4,13.5
 2002/12/05, 4:15,19.3,61,17.2,13.5
 2002/12/05, 4:30,19.2,61,17.2,13.6
 2002/12/05, 4:45,19.2,61,17.1,13.6
 2002/12/05, 5:00,19.2,61,17.3,13.7
 2002/12/05, 5:15,19.1,61,17.1,13.7
 2002/12/05, 5:30,19,61,17,13.8
 2002/12/05, 5:45,19,61,17,13.8
 2002/12/05, 6:00,19,61,17,13.9
 2002/12/05, 6:15,18.8,61,17,13.9
 2002/12/05, 6:30,18.8,61,17,13.9
 2002/12/05, 6:45,18.7,61,17,14
 2002/12/05, 7:00,18.8,61,16.9,12.7
 2002/12/05, 7:15,19.2,61,16.8,12.6
 2002/12/05, 7:30,19.2,61,16.6,13.1
 2002/12/05, 7:45,19,62,16.6,13.1
 2002/12/05, 8:00,18.9,62,16.5,12.7
 2002/12/05, 8:15,19,62,16.5,12.8
 2002/12/05, 8:30,19,61,16.5,12.8
 2002/12/05, 8:45,18.8,61,16.5,12.8
 2002/12/05, 9:00,18.8,62,16.4,12.9
 2002/12/05, 9:15,18.7,61,16.5,12.9
 2002/12/05, 9:30,18.8,61,16.5,13
 2002/12/05, 9:45,18.8,60,16.7,12.5
 2002/12/05,10:00,19,60,16.6,12.4
 2002/12/05,10:15,19.3,60,16.8,12.6
 2002/12/05,10:30,19.5,62,17.1,12.6
 2002/12/05,10:45,19.6,63,17.3,12.7
 2002/12/05,11:00,19.8,62,17.9,12.7
 2002/12/05,11:15,20,59,18,12.8
 2002/12/05,11:30,20.2,57,18.1,12.8
 2002/12/05,11:45,20.4,55,18.3,12.9
 2002/12/05,12:00,20.7,53,18.4,12.9
 2002/12/05,12:15,20.9,52,18.8,13
 2002/12/05,12:30,21.3,51,19.2,12.6
 2002/12/05,12:45,21.8,50,19.3,12.6
 2002/12/05,13:00,22.1,48,19.3,12.6
 2002/12/05,13:15,21.4,49,19.1,12.7
 2002/12/05,13:30,21.3,54,19.5,12.7
 2002/12/05,13:45,21.4,67,19.6,12.8
 2002/12/05,14:00,21.7,54,19.8,12.8
 2002/12/05,14:15,22.1,51,20.6,12.8
 2002/12/05,14:30,22.2,47,20.9,12.8
 2002/12/05,14:45,23,47,21.2,12.9
 2002/12/05,15:00,22.6,47,21.1,12.9
 2002/12/05,15:15,22,49,20.9,12.7
 2002/12/05,15:30,21.9,50,20.8,12.8
 2002/12/05,15:45,21.9,49,20.7,12.8
 2002/12/05,16:00,21.8,49,20.6,12.9
 2002/12/05,16:15,21.7,49,20.5,13
 2002/12/05,16:30,21.6,50,20.2,13
 2002/12/05,16:45,21.4,51,19.7,13.1
 2002/12/05,17:00,21.3,51,19.1,13.2
 2002/12/05,17:15,21.5,53,19.6,13.2
 2002/12/05,17:30,21.6,54,19.6,13.4
 2002/12/05,17:45,21.6,55,19.6,13.5
 2002/12/05,18:00,21.7,55,19.6,13.5
 2002/12/05,18:15,21.8,56,19.6,13.6
 2002/12/05,18:30,25.3,90,19.5,13.6
 2002/12/05,18:45,22.8,59,19.6,13.7
 2002/12/05,19:00,22.5,58,19.4,13.4
 2002/12/05,19:15,22.2,57,19.4,13.2
 2002/12/05,19:30,22.3,56,19.3,13.2
 2002/12/05,19:45,22.3,56,19.3,13.2
 2002/12/05,20:00,22.5,58,19.3,13.3
 2002/12/05,20:15,22.3,58,19.3,13.4
 2002/12/05,20:30,22.1,58,19.3,13.4
 2002/12/05,20:45,22,58,19.2,13.2
 2002/12/05,21:00,21.9,57,19.2,13
 2002/12/05,21:15,21.9,56,19.2,13.1
 2002/12/05,21:30,21.7,56,19.1,13.2
 2002/12/05,21:45,21.8,55,19.1,13.2
 2002/12/05,22:00,21.9,56,19.2,13.3
 2002/12/05,22:15,21.7,56,19,13.2
 2002/12/05,22:30,21.6,56,19,13.2
 2002/12/05,22:45,21.6,56,18.9,13.3
 2002/12/05,23:00,21.5,56,18.8,13.3
 2002/12/05,23:15,21.7,57,18.8,13.4
 2002/12/05,23:30,21.5,58,18.7,13.5
 2002/12/05,23:45,21.3,57,18.7,13.5
 2002/12/06, 0:00,21.3,56,18.7,13.6
 2002/12/06, 0:15,21.2,57,18.6,13.6
 2002/12/06, 0:30,21.1,56,18.6,13.3
 2002/12/06, 0:45,21,56,18.4,13.3
 2002/12/06, 1:00,21,56,18.3,13.4
 2002/12/06, 1:15,20.9,56,18.3,13.4
 2002/12/06, 1:30,20.8,56,18.2,13.5
 2002/12/06, 1:45,20.7,55,18.2,13.5
 2002/12/06, 2:00,20.6,55,18.2,13.6
 2002/12/06, 2:15,20.5,55,18.1,13.6
 2002/12/06, 2:30,20.4,55,17.9,13.7
 2002/12/06, 2:45,20.4,55,17.9,13.7
 2002/12/06, 3:00,20.3,55,17.8,13.8
 2002/12/06, 3:15,20.2,55,17.8,13.9
 2002/12/06, 3:30,20.1,55,17.8,13.9
 2002/12/06, 3:45,20,54,17.7,14
 2002/12/06, 4:00,20,54,17.6,14
 2002/12/06, 4:15,19.8,54,17.5,14.1
 2002/12/06, 4:30,19.8,54,17.4,14.1
 2002/12/06, 4:45,19.7,54,17.3,14.2
 2002/12/06, 5:00,19.5,54,17.3,14.2
 2002/12/06, 5:15,19.5,54,17.2,14.3
 2002/12/06, 5:30,19.4,54,17.1,14.3
 2002/12/06, 5:45,19.3,54,17.1,14.3
 2002/12/06, 6:00,19.3,54,17,14.4
 2002/12/06, 6:15,19.1,54,17,14.4
 2002/12/06, 6:30,19.2,54,16.9,13.2
 2002/12/06, 6:45,19.1,54,16.8,13.3
 2002/12/06, 7:00,19.1,54,16.8,13
 2002/12/06, 7:15,19.4,55,16.7,13
 2002/12/06, 7:30,19.4,56,16.6,13
 2002/12/06, 7:45,19.8,54,16.6,13
 2002/12/06, 8:00,19.5,54,16.5,13
 2002/12/06, 8:15,19.2,53,16.6,13
 2002/12/06, 8:30,19.1,53,16.4,13
 2002/12/06, 8:45,18.8,53,16.4,13
 2002/12/06, 9:00,18.6,54,16.4,13.1
 2002/12/06, 9:15,18.5,54,16.4,13.1
 2002/12/06, 9:30,18.7,54,16.4,13.2
 2002/12/06, 9:45,18.8,54,16.5,13.2
 2002/12/06,10:00,18.8,54,16.5,13.2
 2002/12/06,10:15,18.8,53,16.6,13.3
 2002/12/06,10:30,18.8,53,16.8,13.3
 2002/12/06,10:45,18.9,53,16.8,13.4
 2002/12/06,11:00,18.8,53,17,13.4
 2002/12/06,11:15,18.9,53,17.3,13.5
 2002/12/06,11:30,19.2,53,17.6,13.5
 2002/12/06,11:45,19.2,53,17.8,13.6
 2002/12/06,12:00,19.1,51,17.9,12.8
 2002/12/06,12:15,19.4,52,18.1,12.8
 2002/12/06,12:30,19.3,51,17.9,12.9
 2002/12/06,12:45,19.3,51,17.8,12.9
 2002/12/06,13:00,19,43,17.5,13
 2002/12/06,13:15,18.5,41,17.4,13
 2002/12/06,13:30,18.4,39,17.2,13
 2002/12/06,13:45,18.1,40,17.1,13.1
 2002/12/06,14:00,18.1,40,17,13.1
 2002/12/06,14:15,18.2,43,16.8,13.1
 2002/12/06,14:30,18.4,49,16.8,13.2
 2002/12/06,14:45,18.9,59,16.6,13.2
 2002/12/06,15:00,18.7,46,16.6,13.3
 2002/12/06,15:15,18.5,47,16.5,13.3
 2002/12/06,15:30,18.3,47,16.4,13.3
 2002/12/06,15:45,18.2,46,16.3,13.4
 2002/12/06,16:00,18.2,46,16.2,13.4
 2002/12/06,16:15,18,47,16.1,13.4
 2002/12/06,16:30,18,48,16.2,13.5
 2002/12/06,16:45,18.4,48,16,13.1
 2002/12/06,17:00,18,48,16,13.2
 2002/12/06,17:15,18.1,51,15.9,13.2
 2002/12/06,17:30,18.1,50,15.8,13
 2002/12/06,17:45,18.2,49,15.7,12.8
 2002/12/06,18:00,19.8,71,15.8,12.9
 2002/12/06,18:15,21.4,45,16.1,12.9
 2002/12/06,18:30,22.5,39,16.8,12.9
 2002/12/06,18:45,22.9,38,17.2,12.9
 2002/12/06,19:00,19.5,48,16.2,13
 2002/12/06,19:15,18.9,49,16,13
 2002/12/06,19:30,21.6,43,16.4,13
 2002/12/06,19:45,22.7,39,17,13.1
 2002/12/06,20:00,23,38,17.3,13.1
 2002/12/06,20:15,23.6,39,17.5,13.1
 2002/12/06,20:30,24.3,38,17.8,13.2
 2002/12/06,20:45,24.9,37,18.2,13.2
 2002/12/06,21:00,25.3,35,18.4,12.9
 2002/12/06,21:15,25.4,34,18.7,13
 2002/12/06,21:30,25.6,34,18.9,13
 2002/12/06,21:45,22.7,40,18.3,13.1
 2002/12/06,22:00,21.3,45,17.8,13.1
 2002/12/06,22:15,23.5,39,17.9,13.2
 2002/12/06,22:30,24.2,36,18.3,13.2
 2002/12/06,22:45,24.9,34,18.5,12.7
 2002/12/06,23:00,25.1,34,18.7,12.7
 2002/12/06,23:15,25.8,34,18.9,12.8
 2002/12/06,23:30,25.9,36,19.2,13
 2002/12/06,23:45,26,36,19.3,13
 2002/12/07, 0:00,26,37,19.3,13
 2002/12/07, 0:15,24.7,39,19.3,12.9
 2002/12/07, 0:30,22.3,44,18.5,12.9
 2002/12/07, 0:45,21.7,44,18.2,12.9
 2002/12/07, 1:00,21.2,44,17.9,13
 2002/12/07, 1:15,20.8,44,17.7,13
 2002/12/07, 1:30,20.6,44,17.5,13.1
 2002/12/07, 1:45,20.4,44,17.3,13.1
 2002/12/07, 2:00,20.1,44,17.1,13.1
 2002/12/07, 2:15,19.8,45,17,13.2
 2002/12/07, 2:30,19.7,45,16.9,13.2
 2002/12/07, 2:45,19.6,45,16.7,13.3
 2002/12/07, 3:00,19.3,45,16.5,13.3
 2002/12/07, 3:15,19.2,46,16.4,13.3
 2002/12/07, 3:30,19.1,46,16.4,13.4
 2002/12/07, 3:45,18.9,47,16.2,13.4
 2002/12/07, 4:00,18.8,47,16.1,13.5
 2002/12/07, 4:15,18.6,47,16,13.5
 2002/12/07, 4:30,18.5,47,16,13.5
 2002/12/07, 4:45,18.4,47,15.8,13.6
 2002/12/07, 5:00,18.2,47,15.7,13.6
 2002/12/07, 5:15,18,48,15.7,13.6
 2002/12/07, 5:30,18.1,47,15.5,13.7
 2002/12/07, 5:45,18.2,47,15.5,13.7
 2002/12/07, 6:00,18,47,15.3,13.7
 2002/12/07, 6:15,18,47,15.2,13.8
 2002/12/07, 6:30,17.8,48,15.2,13.8
 2002/12/07, 6:45,17.8,47,15.1,13.8
 2002/12/07, 7:00,17.6,48,15.1,13.8
 2002/12/07, 7:15,17.6,48,14.9,12.4
 2002/12/07, 7:30,17.7,48,14.8,12.4
 2002/12/07, 7:45,17.8,49,14.7,12.4
 2002/12/07, 8:00,18.2,48,14.6,12.4
 2002/12/07, 8:15,18.1,49,14.7,12.5
 2002/12/07, 8:30,18.1,50,14.5,12.8
 2002/12/07, 8:45,18.1,49,14.5,12.8
 2002/12/07, 9:00,18,49,14.4,12.3
 2002/12/07, 9:15,17.8,49,14.4,12.6
 2002/12/07, 9:30,17.7,49,14.3,12.7
 2002/12/07, 9:45,17.6,49,14.3,12.7
 2002/12/07,10:00,17.4,49,14.2,12.7
 2002/12/07,10:15,17.5,49,14.2,12.8
 2002/12/07,10:30,17.4,49,14.1,12.8
 2002/12/07,10:45,17.2,49,14.1,12.8
 2002/12/07,11:00,17.1,49,14,12.8
 2002/12/07,11:15,17.1,51,14.1,12.9
 2002/12/07,11:30,17.6,51,14,12.9
 2002/12/07,11:45,17.6,48,14,12.9
 2002/12/07,12:00,17.5,48,14,12.9
 2002/12/07,12:15,17.5,49,14,13
 2002/12/07,12:30,17.2,49,14,13
 2002/12/07,12:45,17.2,50,14.1,13
 2002/12/07,13:00,17.2,50,14,12
 2002/12/07,13:15,17.5,49,14,12
 2002/12/07,13:30,17.3,50,14,12
 2002/12/07,13:45,17.5,49,14,11.8
 2002/12/07,14:00,17.3,50,14,11.8
 2002/12/07,14:15,17.5,51,14,11.8
 2002/12/07,14:30,17.3,52,14.1,11.8
 2002/12/07,14:45,17.3,51,14,11.9
 2002/12/07,15:00,17.3,52,14,11.9
 2002/12/07,15:15,17.3,52,14,11.9
 2002/12/07,15:30,17.1,52,14,12
 2002/12/07,15:45,17.1,52,14,12
 2002/12/07,16:00,17,52,14,11.8
 2002/12/07,16:15,17,52,14,11.9
 2002/12/07,16:30,16.8,52,14,11.9
 2002/12/07,16:45,16.9,52,13.9,12
 2002/12/07,17:00,16.7,52,13.8,12
 2002/12/07,17:15,17.1,52,13.8,12.9
 2002/12/07,17:30,17.3,53,13.8,13.3
 2002/12/07,17:45,17.6,55,13.9,13.4
 2002/12/07,18:00,19.9,51,14.6,13.4
 2002/12/07,18:15,20.8,45,15.1,13.4
 2002/12/07,18:30,21.5,42,15.5,13.4
 2002/12/07,18:45,22,40,15.7,13.5
 2002/12/07,19:00,22.3,40,16,13.5
 2002/12/07,19:15,22.5,39,16.2,13.5
 2002/12/07,19:30,23.1,40,16.5,13.5
 2002/12/07,19:45,23.4,40,16.6,13.6
 2002/12/07,20:00,23.5,48,17,13.6
 2002/12/07,20:15,24.1,44,17.3,13.6
 2002/12/07,20:30,24.3,44,17.4,13.7